Weather History for Arbor Vitae, WI

Change the Weather History Date:

Tuesday, March 19, 2013

  Actual Average Record
Temperature  
Mean Temperature 21 °F -  
Max Temperature 28 °F 39 °F 77 °F (2012)
Min Temperature 14 °F 14 °F -22 °F (1923)
Degree Days  
Heating Degree Days 44    
Moisture  
Dew Point 9 °F    
Average Humidity 65    
Maximum Humidity 86    
Minimum Humidity 40    
Precipitation  
Precipitation 0.00 in - - ()
Sea Level Pressure  
Sea Level Pressure 29.67 in    
Wind  
Wind Speed 12 mph (WNW)    
Max Wind Speed 20 mph    
Max Gust Speed 30 mph    
Visibility 6 miles    
Events Snow    
Averages and records for this station are not official NWS values.
T = Trace of Precipitation, MM = Missing Value Source: NWS Daily Summary

Daily Weather History Graph

Daily Weather History Graph

Search for Another Location

Airport:

Trip Planner

Search our weather history database for the weather conditions in past years. The results will help you decide how hot, cold, wet, or windy it might be!

Date:

Astronomy

Mar. 19, 2013 Rise Set
Actual Time 7:03 AM CDT 7:10 PM CDT
Civil Twilight 6:33 AM CDT 7:40 PM CDT
Nautical Twilight 5:58 AM CDT 8:15 PM CDT
Astronomical Twilight 5:22 AM CDT 8:51 PM CDT
Moon 11:36 AM CDT (3/19) 2:14 AM CDT (3/19)
Length of Visible Light 13h 06m
Length of Day
12h 07m
Waxing Crescent, 50% of the Moon is Illuminated
Mar 19
Waxing Crescent
Mar 19
First Quarter
Mar 27
Full
Apr 2
Last Quarter
Apr 10
New

Hourly Weather History & Observations

Time (CDT) Temp. Windchill Dew Point Humidity Pressure Visibility Wind Dir Wind Speed Gust Speed Precip Events Conditions
12:15 AM 17.6 °F 6.4 °F 12.2 °F 79% 29.47 in 2.5 mi West 9.2 mph - N/A Snow Light Snow
12:35 AM 17.6 °F 6.4 °F 12.2 °F 79% 29.47 in 3.0 mi West 9.2 mph - N/A Snow Light Snow
12:55 AM 17.6 °F 7.3 °F 12.2 °F 79% 29.47 in 4.0 mi West 8.1 mph - N/A Snow Light Snow
1:15 AM 17.6 °F 8.2 °F 12.2 °F 79% 29.46 in 4.0 mi West 6.9 mph - N/A Snow Light Snow
1:35 AM 17.6 °F 6.4 °F 12.2 °F 79% 29.46 in 1.8 mi West 9.2 mph 16.1 mph N/A Snow Light Snow
1:55 AM 17.6 °F 5.7 °F 12.2 °F 79% 29.46 in 1.5 mi West 10.4 mph 17.3 mph N/A Snow Light Snow
2:15 AM 17.6 °F 7.3 °F 14.0 °F 86% 29.46 in 1.5 mi West 8.1 mph - N/A Snow Light Snow
2:55 AM 19.4 °F 7.9 °F 14.0 °F 80% 29.47 in 1.2 mi West 10.4 mph 17.3 mph N/A Snow Snow
3:15 AM 17.6 °F 3.7 °F 14.0 °F 86% 29.47 in 1.2 mi WNW 13.8 mph 18.4 mph N/A Snow Light Snow
3:35 AM 17.6 °F 6.4 °F 12.2 °F 79% 29.47 in 1.5 mi WNW 9.2 mph 21.9 mph N/A Snow Light Snow
3:55 AM 17.6 °F 6.4 °F 12.2 °F 79% 29.48 in 1.2 mi WNW 9.2 mph 18.4 mph N/A Snow Light Snow
4:15 AM 17.6 °F 5.7 °F 12.2 °F 79% 29.48 in 1.2 mi West 10.4 mph 17.3 mph N/A Snow Light Snow
4:35 AM 17.6 °F 3.7 °F 12.2 °F 79% 29.49 in 1.5 mi West 13.8 mph 20.7 mph N/A Snow Light Snow
5:15 AM 14.0 °F -0.8 °F 10.4 °F 86% 29.50 in 1.8 mi WNW 13.8 mph 24.2 mph N/A Snow Light Snow
5:35 AM 14.0 °F -2.0 °F 10.4 °F 86% 29.51 in 2.5 mi WNW 16.1 mph 23.0 mph N/A Snow Light Snow
5:55 AM 14.0 °F 0.5 °F 10.4 °F 86% 29.52 in 1.8 mi WNW 11.5 mph 18.4 mph N/A Snow Light Snow
6:15 AM 14.0 °F 1.2 °F 10.4 °F 86% 29.53 in 2.0 mi WNW 10.4 mph 18.4 mph N/A Snow Light Snow
6:35 AM 14.0 °F -0.2 °F 10.4 °F 86% 29.54 in 1.8 mi WNW 12.7 mph 19.6 mph N/A Snow Light Snow
6:55 AM 14.0 °F 1.2 °F 10.4 °F 86% 29.56 in 3.0 mi WNW 10.4 mph 21.9 mph N/A Snow Light Snow
7:15 AM 14.0 °F 1.2 °F 10.4 °F 86% 29.57 in 2.5 mi WNW 10.4 mph 18.4 mph N/A Snow Light Snow
7:35 AM 14.0 °F -0.8 °F 8.6 °F 79% 29.58 in 2.5 mi WNW 13.8 mph 19.6 mph N/A Snow Light Snow
7:55 AM 14.0 °F -0.8 °F 8.6 °F 79% 29.58 in 1.8 mi WNW 13.8 mph 17.3 mph N/A Snow Light Snow
8:15 AM 14.0 °F 0.5 °F 8.6 °F 79% 29.60 in 2.5 mi WNW 11.5 mph 18.4 mph N/A Snow Light Snow
8:35 AM 14.0 °F -0.2 °F 8.6 °F 79% 29.60 in 5.0 mi WNW 12.7 mph 20.7 mph N/A Snow Light Snow
8:55 AM 14.0 °F -0.8 °F 8.6 °F 79% 29.61 in 5.0 mi WNW 13.8 mph 20.7 mph N/A Snow Light Snow
9:15 AM 14.0 °F -0.8 °F 8.6 °F 79% 29.62 in 7.0 mi WNW 13.8 mph 25.3 mph N/A Snow Light Snow
9:35 AM 14.0 °F -1.4 °F 8.6 °F 79% 29.62 in 7.0 mi NW 15.0 mph 21.9 mph N/A Snow Light Snow
9:55 AM 17.6 °F 5.7 °F 10.4 °F 73% 29.63 in 7.0 mi WNW 10.4 mph 26.5 mph N/A Snow Light Snow
10:15 AM 17.6 °F 3.2 °F 10.4 °F 73% 29.63 in 7.0 mi NW 15.0 mph 24.2 mph N/A Snow Light Snow
10:35 AM 17.6 °F 3.2 °F 8.6 °F 68% 29.65 in 7.0 mi WNW 15.0 mph 21.9 mph N/A Snow Light Snow
10:55 AM 17.6 °F 4.3 °F 8.6 °F 68% 29.65 in 7.0 mi NW 12.7 mph 20.7 mph N/A Snow Light Snow
11:15 AM 19.4 °F 6.0 °F 10.4 °F 68% 29.66 in 7.0 mi WNW 13.8 mph 25.3 mph N/A Snow Light Snow
11:35 AM 19.4 °F 6.6 °F 12.2 °F 74% 29.67 in 4.0 mi WNW 12.7 mph 25.3 mph N/A Snow Light Snow
11:55 AM 21.2 °F 8.3 °F 12.2 °F 68% 29.67 in 5.0 mi WNW 13.8 mph 20.7 mph N/A Snow Light Snow
12:15 PM 23.0 °F 9.2 °F 12.2 °F 63% 29.68 in 5.0 mi WNW 17.3 mph 25.3 mph N/A Snow Light Snow
12:35 PM 23.0 °F 10.6 °F 12.2 °F 63% 29.69 in 7.0 mi WNW 13.8 mph 25.3 mph N/A Snow Light Snow
12:55 PM 23.0 °F 10.1 °F 14.0 °F 68% 29.70 in 2.5 mi WNW 15.0 mph 24.2 mph N/A Snow Light Snow
1:15 PM 23.0 °F 11.7 °F 14.0 °F 68% 29.70 in 2.5 mi WNW 11.5 mph 24.2 mph N/A Snow Light Snow
1:35 PM 23.0 °F 9.6 °F 12.2 °F 63% 29.70 in 10.0 mi West 16.1 mph 24.2 mph N/A   Mostly Cloudy
1:55 PM 24.8 °F 12.4 °F 12.2 °F 59% 29.71 in 7.0 mi WNW 15.0 mph 28.8 mph N/A   Overcast
2:15 PM 24.8 °F 12.9 °F 10.4 °F 54% 29.71 in 7.0 mi WNW 13.8 mph 29.9 mph N/A   Mostly Cloudy
2:35 PM 26.6 °F 13.8 °F 10.4 °F 51% 29.72 in 7.0 mi WNW 17.3 mph 28.8 mph N/A   Mostly Cloudy
2:55 PM 26.6 °F 14.3 °F 10.4 °F 51% 29.72 in 10.0 mi NW 16.1 mph 28.8 mph N/A   Mostly Cloudy
3:15 PM 26.6 °F 13.4 °F 8.6 °F 47% 29.73 in 4.0 mi NW 18.4 mph 27.6 mph N/A   Haze
3:35 PM 26.6 °F 13.8 °F 8.6 °F 47% 29.74 in 2.5 mi WNW 17.3 mph 27.6 mph N/A   Haze
3:55 PM 28.4 °F 16.6 °F 8.6 °F 43% 29.75 in 7.0 mi WNW 16.1 mph 26.5 mph N/A   Scattered Clouds
4:15 PM 26.6 °F 14.3 °F 6.8 °F 43% 29.76 in 10.0 mi WNW 16.1 mph 25.3 mph N/A   Scattered Clouds
4:35 PM 26.6 °F 13.8 °F 6.8 °F 43% 29.76 in 10.0 mi NW 17.3 mph 25.3 mph N/A   Clear
4:55 PM 26.6 °F 14.7 °F 5.0 °F 40% 29.77 in 7.0 mi NW 15.0 mph 26.5 mph N/A   Scattered Clouds
5:15 PM 26.6 °F 15.7 °F 5.0 °F 40% 29.79 in 10.0 mi NW 12.7 mph 20.7 mph N/A   Scattered Clouds
5:35 PM 26.6 °F 13.4 °F 5.0 °F 40% 29.79 in 5.0 mi NW 18.4 mph 29.9 mph N/A   Haze
5:55 PM 26.6 °F 13.1 °F 5.0 °F 40% 29.80 in 10.0 mi WNW 19.6 mph 24.2 mph N/A   Scattered Clouds
6:15 PM 24.8 °F 12.9 °F 3.2 °F 40% 29.81 in 10.0 mi NW 13.8 mph 25.3 mph N/A   Clear
6:35 PM 24.8 °F 13.4 °F 5.0 °F 43% 29.82 in 10.0 mi WNW 12.7 mph 24.2 mph N/A   Clear
6:55 PM 23.0 °F 11.7 °F 3.2 °F 43% 29.82 in 10.0 mi NW 11.5 mph 25.3 mph N/A   Clear
7:15 PM 23.0 °F 11.1 °F 3.2 °F 43% 29.83 in 10.0 mi NW 12.7 mph 18.4 mph N/A   Clear
7:35 PM 23.0 °F 9.6 °F 3.2 °F 43% 29.84 in 10.0 mi NW 16.1 mph 21.9 mph N/A   Scattered Clouds
7:55 PM 23.0 °F 10.6 °F 3.2 °F 43% 29.85 in 10.0 mi NW 13.8 mph 24.2 mph N/A   Scattered Clouds
8:15 PM 21.2 °F 11.7 °F 5.0 °F 50% 29.85 in 10.0 mi WNW 8.1 mph 24.2 mph N/A   Scattered Clouds
8:35 PM 19.4 °F 6.0 °F 3.2 °F 49% 29.86 in 10.0 mi WNW 13.8 mph 18.4 mph N/A   Clear
8:55 PM 19.4 °F 8.6 °F 3.2 °F 49% 29.86 in 10.0 mi WNW 9.2 mph - N/A   Scattered Clouds
9:15 PM 19.4 °F 7.2 °F 3.2 °F 49% 29.87 in 10.0 mi WNW 11.5 mph 16.1 mph N/A   Mostly Cloudy
9:35 PM 19.4 °F 7.9 °F 3.2 °F 49% 29.87 in 10.0 mi WNW 10.4 mph - N/A   Mostly Cloudy
9:55 PM 19.4 °F 7.2 °F 5.0 °F 54% 29.86 in 10.0 mi WNW 11.5 mph 19.6 mph N/A   Scattered Clouds
10:15 PM 19.4 °F 7.9 °F 3.2 °F 49% 29.87 in 10.0 mi WNW 10.4 mph 21.9 mph N/A   Clear
10:35 PM 17.6 °F 5.0 °F 5.0 °F 58% 29.86 in 10.0 mi NW 11.5 mph 23.0 mph N/A   Clear
10:55 PM 17.6 °F 5.0 °F 5.0 °F 58% 29.87 in 10.0 mi WNW 11.5 mph 18.4 mph N/A   Clear
11:15 PM 17.6 °F 5.7 °F 5.0 °F 58% 29.87 in 10.0 mi NW 10.4 mph 16.1 mph N/A   Scattered Clouds
11:35 PM 17.6 °F 8.2 °F 8.6 °F 68% 29.87 in 10.0 mi WNW 6.9 mph 16.1 mph N/A   Mostly Cloudy
11:55 PM 17.6 °F 6.4 °F 8.6 °F 68% 29.87 in 7.0 mi NW 9.2 mph - N/A Snow Light Snow